Hourly Weather Otowo

Today, 23 July, Friday

Time Temperature Precipitation Wind Pressure Humidity
00:00 +18°C° 0 mm 1 mps 755 mmHg 83%
01:00 +18°C° 0 mm 1 mps 754 mmHg 85%
02:00 +18°C° 0 mm 1 mps 754 mmHg 84%
03:00 +16°C° 0 mm 0 mps 754 mmHg 84%
04:00 +16°C° 0 mm 0 mps 754 mmHg 83%
05:00 +17°C° 0 mm 0 mps 754 mmHg 82%
06:00 +19°C° 0 mm 1 mps 754 mmHg 81%
07:00 +20°C° 0 mm 1 mps 754 mmHg 79%
08:00 +21°C° 0.3 mm 1 mps 754 mmHg 76%
09:00 +21°C° 0.3 mm 1 mps 754 mmHg 73%
10:00 +21°C° 0.3 mm 2 mps 754 mmHg 69%
11:00 +23°C° 0.2 mm 2 mps 754 mmHg 64%
12:00 +24°C° 0.2 mm 2 mps 754 mmHg 59%
13:00 +25°C° 0.2 mm 2 mps 753 mmHg 54%
14:00 +25°C° 0 mm 2 mps 753 mmHg 54%
15:00 +25°C° 0 mm 2 mps 753 mmHg 53%
16:00 +25°C° 0 mm 2 mps 753 mmHg 53%
17:00 +25°C° 0 mm 1 mps 753 mmHg 56%
18:00 +24°C° 0 mm 1 mps 753 mmHg 59%
19:00 +23°C° 0 mm 1 mps 752 mmHg 62%
20:00 +22°C° 0 mm 1 mps 753 mmHg 63%
21:00 +22°C° 0 mm 1 mps 753 mmHg 63%
22:00 +19°C° 0 mm 0 mps 753 mmHg 63%
23:00 +19°C° 0 mm 0 mps 753 mmHg 64%

Tomorrow, 24 July, Saturday

Time Temperature Precipitation Wind Pressure Humidity
00:00 +19°C° 0 mm 0 mps 753 mmHg 64%
01:00 +19°C° 0 mm 0 mps 753 mmHg 64%
02:00 +21°C° 0 mm 1 mps 752 mmHg 65%
03:00 +20°C° 0 mm 1 mps 752 mmHg 65%
04:00 +19°C° 0 mm 2 mps 752 mmHg 66%
05:00 +20°C° 0 mm 2 mps 752 mmHg 66%
06:00 +21°C° 0 mm 1 mps 752 mmHg 66%
07:00 +21°C° 0 mm 1 mps 753 mmHg 67%
08:00 +23°C° 0 mm 2 mps 752 mmHg 62%
09:00 +24°C° 0 mm 2 mps 752 mmHg 58%
10:00 +25°C° 0 mm 3 mps 752 mmHg 53%
11:00 +26°C° 0 mm 3 mps 752 mmHg 48%
12:00 +27°C° 0 mm 3 mps 752 mmHg 43%
13:00 +28°C° 0 mm 3 mps 752 mmHg 38%
14:00 +28°C° 0 mm 3 mps 752 mmHg 38%
15:00 +29°C° 0 mm 3 mps 752 mmHg 38%
16:00 +29°C° 0 mm 3 mps 752 mmHg 38%
17:00 +27°C° 0 mm 3 mps 751 mmHg 45%
18:00 +26°C° 0 mm 3 mps 751 mmHg 51%
19:00 +24°C° 0 mm 3 mps 751 mmHg 58%
20:00 +22°C° 0 mm 3 mps 751 mmHg 60%
21:00 +21°C° 0 mm 3 mps 751 mmHg 62%
22:00 +20°C° 0 mm 3 mps 751 mmHg 64%
23:00 +20°C° 0 mm 3 mps 751 mmHg 64%

Day after tomorrow, 25 July, Sunday

Time Temperature Precipitation Wind Pressure Humidity
00:00 +19°C° 0 mm 3 mps 751 mmHg 65%
01:00 +19°C° 0 mm 3 mps 751 mmHg 65%
02:00 +19°C° 0 mm 3 mps 751 mmHg 68%
03:00 +18°C° 0 mm 3 mps 751 mmHg 70%
04:00 +17°C° 0 mm 3 mps 751 mmHg 72%
05:00 +19°C° 0 mm 4 mps 751 mmHg 69%
06:00 +20°C° 0 mm 4 mps 751 mmHg 66%
07:00 +22°C° 0 mm 5 mps 751 mmHg 63%
08:00 +23°C° 0 mm 5 mps 751 mmHg 59%
09:00 +26°C° 0 mm 5 mps 750 mmHg 55%
10:00 +28°C° 0 mm 5 mps 750 mmHg 50%
11:00 +29°C° 0 mm 5 mps 750 mmHg 47%
12:00 +30°C° 0 mm 5 mps 750 mmHg 44%
13:00 +32°C° 0 mm 5 mps 750 mmHg 42%
14:00 +28°C° 0.4 mm 6 mps 750 mmHg 52%
15:00 +24°C° 0.4 mm 6 mps 750 mmHg 63%
16:00 +22°C° 0.4 mm 7 mps 751 mmHg 74%
17:00 +21°C° 0.5 mm 6 mps 751 mmHg 76%
18:00 +21°C° 0.5 mm 5 mps 751 mmHg 78%
19:00 +20°C° 0.5 mm 4 mps 751 mmHg 79%
20:00 +20°C° 0.3 mm 3 mps 751 mmHg 83%
21:00 +19°C° 0.3 mm 3 mps 751 mmHg 87%
22:00 +19°C° 0.3 mm 3 mps 751 mmHg 90%
23:00 +18°C° 0.2 mm 3 mps 751 mmHg 91%

26 July, Monday

Time Temperature Precipitation Wind Pressure Humidity
00:00 +18°C° 0.2 mm 3 mps 751 mmHg 91%
01:00 +18°C° 0.2 mm 3 mps 751 mmHg 92%
02:00 +18°C° 0 mm 3 mps 750 mmHg 92%
03:00 +18°C° 0 mm 3 mps 750 mmHg 92%
04:00 +18°C° 0 mm 2 mps 750 mmHg 91%
05:00 +19°C° 0 mm 3 mps 750 mmHg 88%
06:00 +20°C° 0 mm 3 mps 750 mmHg 84%
07:00 +21°C° 0 mm 4 mps 750 mmHg 80%
08:00 +24°C° 0 mm 3 mps 750 mmHg 74%
09:00 +25°C° 0 mm 3 mps 750 mmHg 67%
10:00 +26°C° 0 mm 2 mps 750 mmHg 61%
11:00 +28°C° 0 mm 2 mps 750 mmHg 57%
12:00 +29°C° 0 mm 2 mps 750 mmHg 53%
13:00 +30°C° 0 mm 2 mps 750 mmHg 49%
14:00 +30°C° 0 mm 2 mps 749 mmHg 47%
15:00 +31°C° 0 mm 2 mps 749 mmHg 45%
16:00 +31°C° 0 mm 2 mps 749 mmHg 43%
17:00 +30°C° 0 mm 2 mps 749 mmHg 49%
18:00 +28°C° 0 mm 2 mps 749 mmHg 54%
19:00 +27°C° 0 mm 2 mps 749 mmHg 60%
20:00 +25°C° 0.5 mm 3 mps 749 mmHg 70%
21:00 +22°C° 0.5 mm 3 mps 749 mmHg 81%
22:00 +20°C° 0.5 mm 3 mps 750 mmHg 91%
23:00 +20°C° 0.1 mm 2 mps 750 mmHg 92%

27 July, Tuesday

Time Temperature Precipitation Wind Pressure Humidity
00:00 +19°C° 0.1 mm 2 mps 750 mmHg 92%
01:00 +20°C° 0.1 mm 1 mps 750 mmHg 93%
02:00 +20°C° 0 mm 1 mps 750 mmHg 93%
03:00 +18°C° 0 mm 2 mps 750 mmHg 92%
04:00 +18°C° 0 mm 2 mps 751 mmHg 92%
05:00 +19°C° 0 mm 2 mps 751 mmHg 86%
06:00 +20°C° 0 mm 2 mps 751 mmHg 80%
07:00 +21°C° 0 mm 2 mps 751 mmHg 74%
08:00 +24°C° 0 mm 3 mps 751 mmHg 68%
09:00 +26°C° 0 mm 3 mps 751 mmHg 61%
10:00 +28°C° 0 mm 3 mps 751 mmHg 54%
11:00 +28°C° 0 mm 4 mps 751 mmHg 51%
12:00 +29°C° 0 mm 4 mps 751 mmHg 47%
13:00 +30°C° 0 mm 4 mps 751 mmHg 44%
14:00 +29°C° 0 mm 4 mps 751 mmHg 47%
15:00 +28°C° 0 mm 3 mps 751 mmHg 49%
16:00 +28°C° 0 mm 2 mps 751 mmHg 52%
17:00 +27°C° 0 mm 2 mps 751 mmHg 55%
18:00 +26°C° 0 mm 2 mps 751 mmHg 57%
19:00 +26°C° 0 mm 2 mps 751 mmHg 60%
20:00 +25°C° 0 mm 2 mps 751 mmHg 61%
21:00 +24°C° 0 mm 2 mps 751 mmHg 63%
22:00 +23°C° 0 mm 2 mps 751 mmHg 64%
23:00 +21°C° 0 mm 2 mps 751 mmHg 66%

28 July, Wednesday

Time Temperature Precipitation Wind Pressure Humidity
00:00 +21°C° 0 mm 2 mps 751 mmHg 68%
01:00 +20°C° 0 mm 2 mps 751 mmHg 70%
02:00 +20°C° 0.1 mm 2 mps 751 mmHg 73%
03:00 +20°C° 0.1 mm 3 mps 751 mmHg 75%
04:00 +20°C° 0.1 mm 3 mps 751 mmHg 78%
05:00 +20°C° 0 mm 4 mps 751 mmHg 77%
06:00 +20°C° 0 mm 4 mps 752 mmHg 76%
07:00 +20°C° 0 mm 4 mps 752 mmHg 75%
08:00 +21°C° 0 mm 4 mps 752 mmHg 67%
09:00 +23°C° 0 mm 5 mps 752 mmHg 58%
10:00 +26°C° 0 mm 5 mps 752 mmHg 50%
11:00 +27°C° 0 mm 5 mps 752 mmHg 46%
12:00 +27°C° 0 mm 5 mps 752 mmHg 43%
13:00 +28°C° 0 mm 4 mps 752 mmHg 40%
14:00 +29°C° 0 mm 4 mps 751 mmHg 39%
15:00 +29°C° 0 mm 4 mps 751 mmHg 38%
16:00 +29°C° 0 mm 4 mps 751 mmHg 37%
17:00 +28°C° 0 mm 4 mps 751 mmHg 42%
18:00 +27°C° 0 mm 3 mps 751 mmHg 47%
19:00 +26°C° 0 mm 2 mps 751 mmHg 52%
20:00 +25°C° 0 mm 2 mps 751 mmHg 54%
21:00 +24°C° 0 mm 2 mps 752 mmHg 56%
22:00 +24°C° 0 mm 2 mps 752 mmHg 58%
23:00 +23°C° 0 mm 2 mps 752 mmHg 60%
Show more